[[{"header":{"parameterUnit":"m.s-1","parameterCategory":1,"la1":30.2992,"la2":30.254,"lo1":-89.0895,"lo2":-89.0443,"dy":0.0025,"dx":0.0025,"nx":19,"ny":19,"refTime":"2026-05-23T09:00:00:Z","depth":0,"parameterNumber":2,"parameterNumberName":"U-component_of_WINDS"},"data":[0,0,0,-0.467,-0.4672,-0.4794,-0.4794,-0.4937,-0.4938,0,0,0,0,0,0,0,0,0,0,0,-0.4623,-0.4623,-0.467,-0.4672,-0.4794,-0.4794,-0.4937,-0.4938,0,0,0,0,0,0,0,0,0,0,0,-0.4622,-0.4623,-0.4624,-0.4673,-0.4794,-0.4795,-0.4937,-0.485,0,0,0,0,0,0,0,0,0,0,-0.4735,-0.4679,-0.4623,-0.4624,-0.4673,-0.4794,-0.4795,-0.4846,-0.4856,-0.4875,0,-0.4887,0,-0.4915,-0.4947,-0.4947,0,0,0,-0.4682,-0.4671,-0.4714,-0.4624,-0.4674,-0.4793,-0.4742,-0.4852,-0.4862,-0.4888,-0.4889,-0.4895,-0.4917,-0.4947,-0.4948,-0.5024,-0.5024,0,0,-0.4675,-0.4639,-0.4707,-0.472,-0.4697,-0.4738,-0.4745,-0.4858,-0.4859,-0.489,-0.4899,-0.4919,-0.4948,-0.4949,-0.5025,-0.5024,0,0,0,-0.4649,-0.4634,-0.4674,-0.4714,-0.4736,-0.4741,-0.475,-0.4854,-0.487,-0.49,-0.4921,-0.4949,-0.4951,-0.5025,-0.5025,-0.4985,0,0,0,-0.4646,-0.4619,-0.4671,-0.465,-0.4734,-0.4796,-0.4742,-0.4862,-0.4876,-0.492,-0.4949,-0.4952,-0.5025,-0.5025,-0.4986,-0.4972,0,0,0,-0.4619,-0.4616,-0.4629,-0.4648,-0.4699,-0.4795,-0.4818,-0.4866,-0.4888,-0.4947,-0.4952,-0.5025,-0.5025,-0.4987,-0.4974,-0.4982,0,0,0,-0.458,-0.4593,-0.4628,-0.4652,-0.4697,-0.4768,-0.4817,-0.4873,-0.4919,-0.495,-0.5025,-0.5025,-0.4988,-0.4975,-0.4983,-0.4981,-0.4977,0,0,-0.4577,-0.4592,-0.4609,-0.4643,-0.4698,-0.4753,-0.4804,-0.4881,-0.4922,-0.4989,-0.4991,-0.4986,-0.4974,-0.4982,-0.4967,-0.4963,0,0,0,-0.4596,-0.4607,-0.463,-0.467,-0.4728,-0.4778,-0.4851,-0.488,-0.4938,-0.4947,-0.4992,-0.4986,-0.4992,-0.4993,-0.499,-0.4998,-0.5023,-0.5023,-0.5023,-0.454,-0.4588,-0.462,-0.4684,-0.4723,-0.4799,-0.4836,-0.4889,-0.4928,-0.4938,-0.4958,-0.4942,-0.4942,-0.494,-0.4948,-0.4961,-0.4961,-0.4961,-0.4961,-0.454,-0.4564,-0.4615,-0.4664,-0.4717,-0.476,-0.4835,-0.4861,-0.4911,-0.4931,-0.4939,-0.4956,-0.4934,-0.4944,-0.4959,-0.4959,-0.4959,-0.496,-0.496,-0.4508,-0.4528,-0.4562,-0.4627,-0.4673,-0.4739,-0.4784,-0.4831,-0.4877,-0.4884,-0.4912,-0.4912,-0.4919,-0.4894,-0.4894,-0.4894,-0.4894,-0.4894,-0.4894,-0.4462,-0.4501,-0.4532,-0.4595,-0.4628,-0.4678,-0.4756,-0.4791,-0.4843,-0.4875,-0.4875,-0.4914,-0.4922,-0.4923,-0.4893,-0.4893,-0.4893,-0.4893,-0.4894,-0.4443,-0.4455,-0.4501,-0.4534,-0.4614,-0.4657,-0.4717,-0.4786,-0.4822,-0.4843,-0.4882,-0.488,-0.4899,-0.4902,-0.4903,-0.487,-0.487,-0.487,-0.487,-0.4416,-0.443,-0.4489,-0.4539,-0.4594,-0.4654,-0.4709,-0.477,-0.4837,-0.4863,-0.4876,-0.4882,-0.4882,-0.4901,-0.4904,-0.4906,-0.4874,-0.4874,-0.4874,-0.4408,-0.4429,-0.4464,-0.4527,-0.4593,-0.4651,-0.4704,-0.4763,-0.4841,-0.4875,-0.4885,-0.4885,-0.4896,-0.4896,-0.4929,-0.4932,-0.4937,0,0]},{"header":{"parameterUnit":"m.s-1","parameterCategory":1,"la1":30.2992,"la2":30.254,"lo1":-89.0895,"lo2":-89.0443,"dy":0.0025,"dx":0.0025,"nx":19,"ny":19,"refTime":"2026-05-23T09:00:00:Z","depth":0,"parameterNumber":3,"parameterNumberName":"V-component_of_WINDS"},"data":[0,0,0,3.4137,3.414,3.4229,3.4229,3.4351,3.4352,0,0,0,0,0,0,0,0,0,0,0,3.4119,3.412,3.4137,3.414,3.4229,3.4229,3.435,3.4352,0,0,0,0,0,0,0,0,0,0,0,3.4118,3.412,3.4121,3.414,3.4229,3.4229,3.435,3.4279,0,0,0,0,0,0,0,0,0,0,3.4191,3.4182,3.4119,3.4121,3.4141,3.4229,3.4229,3.4276,3.4284,3.4314,0,3.4347,0,3.4352,3.4361,3.4361,0,0,0,3.4133,3.4176,3.4193,3.4121,3.4142,3.4229,3.4187,3.428,3.4289,3.4325,3.4348,3.4353,3.4354,3.4362,3.4362,3.4568,3.4569,0,0,3.4128,3.4138,3.4187,3.42,3.419,3.4184,3.419,3.4285,3.431,3.4349,3.4355,3.4356,3.4363,3.4364,3.4567,3.4569,0,0,0,3.4118,3.4135,3.415,3.4195,3.4211,3.4187,3.4193,3.4306,3.431,3.4356,3.4357,3.4363,3.4365,3.4566,3.4568,3.4641,0,0,0,3.4115,3.4129,3.4148,3.4155,3.4209,3.426,3.4212,3.4303,3.4314,3.4356,3.4363,3.4366,3.4564,3.4567,3.4636,3.4673,0,0,0,3.411,3.4129,3.4145,3.4156,3.4195,3.4258,3.4268,3.4306,3.4315,3.4361,3.4367,3.4563,3.4566,3.4632,3.4666,3.473,0,0,0,3.4107,3.4208,3.4146,3.4259,3.4194,3.4305,3.4267,3.4348,3.4397,3.4364,3.4564,3.4567,3.463,3.4661,3.4725,3.4784,3.4811,0,0,3.424,3.4225,3.429,3.4237,3.4362,3.429,3.4424,3.4458,3.4451,3.4529,3.4533,3.4638,3.4665,3.4729,3.4957,3.4978,0,0,0,3.4336,3.4383,3.4413,3.4462,3.4492,3.4519,3.4532,3.4544,3.461,3.4495,3.4678,3.4694,3.4731,3.4759,3.4777,3.4806,3.4581,3.4581,3.4581,3.4538,3.4526,3.4633,3.4632,3.4679,3.4691,3.4727,3.4745,3.4718,3.4762,3.4784,3.4924,3.4958,3.4971,3.5002,3.4816,3.4816,3.4816,3.4816,3.473,3.4794,3.4757,3.4848,3.4834,3.4908,3.4923,3.4901,3.4966,3.4907,3.4938,3.4873,3.4994,3.5021,3.4822,3.4821,3.482,3.482,3.4819,3.486,3.4888,3.4903,3.4972,3.5025,3.5019,3.5084,3.5068,3.5053,3.5085,3.5106,3.5104,3.51,3.5096,3.5097,3.5097,3.5098,3.5098,3.5098,3.4988,3.5003,3.5061,3.5101,3.5129,3.5164,3.5177,3.5203,3.5228,3.5211,3.5211,3.5179,3.501,3.4967,3.5106,3.5105,3.5104,3.5103,3.5102,3.5185,3.5138,3.5228,3.5257,3.5302,3.5354,3.5334,3.5389,3.5408,3.544,3.5401,3.528,3.5261,3.5247,3.5211,3.5405,3.5405,3.5405,3.5405,3.5293,3.5284,3.5371,3.5418,3.5462,3.5453,3.5551,3.5561,3.5563,3.5574,3.5543,3.5495,3.5481,3.5471,3.5452,3.5418,3.566,3.566,3.5661,3.5413,3.5407,3.5495,3.55,3.5533,3.5561,3.5653,3.5705,3.5697,3.5671,3.5581,3.557,3.5492,3.5467,3.5437,3.5408,3.5345,0,0]}]]